M4105 LRIA-UKBB

Flight info

Callsign M4105
Flight time 0h 55m
Altitude 34000
Route ARPIG DCT RIXOS DCT SLV
Aircraft B737/M-SDE2E3FGHIRWXY/LB1

Departure

Time 2026-04-21 17:21
Airport Iaşi International Airport (LRIA)

Arrival

Time 2026-04-21 18:16
Airport Boryspil International Airport (UKBB)
Time Latitude Longitude Altitude Speed Heading
2026-04-21 17:03 47.17566 27.61953 354 ft 0 kts 274°
2026-04-21 17:15 47.17565 27.61974 354 ft 2 kts 273°
2026-04-21 17:15 47.17564 27.61989 354 ft 1 kts 274°
2026-04-21 17:16 47.17567 27.62009 354 ft 2 kts 235°
2026-04-21 17:16 47.17578 27.62024 354 ft 2 kts 199°
2026-04-21 17:16 47.17593 27.62025 354 ft 1 kts 162°
2026-04-21 17:16 47.17596 27.62024 354 ft 1 kts 155°
2026-04-21 17:17 47.17601 27.62019 355 ft 0 kts 154°
2026-04-21 17:18 47.17588 27.62028 354 ft 4 kts 154°
2026-04-21 17:18 47.17543 27.62060 352 ft 9 kts 154°
2026-04-21 17:18 47.17470 27.62120 347 ft 14 kts 149°
2026-04-21 17:18 47.17368 27.62210 342 ft 19 kts 148°
2026-04-21 17:19 47.17262 27.62356 333 ft 23 kts 86°
2026-04-21 17:19 47.17335 27.62555 335 ft 22 kts 58°
2026-04-21 17:19 47.17283 27.62750 328 ft 25 kts 147°
2026-04-21 17:19 47.17152 27.62938 320 ft 27 kts 159°
2026-04-21 17:20 47.17118 27.62896 320 ft 4 kts 321°
2026-04-21 17:20 47.17142 27.62872 322 ft 12 kts 328°
2026-04-21 17:20 47.17542 27.62519 343 ft 121 kts 329°
2026-04-21 17:20 47.18521 27.61657 536 ft 200 kts 328°
2026-04-21 17:21 47.19803 27.60489 1500 ft 235 kts 326°
2026-04-21 17:21 47.20961 27.58950 2831 ft 226 kts 313°
2026-04-21 17:21 47.21926 27.57176 3783 ft 228 kts 309°
2026-04-21 17:21 47.22874 27.55346 4238 ft 230 kts 309°
2026-04-21 17:22 47.23503 27.54111 4569 ft 230 kts 309°
2026-04-21 17:22 47.24762 27.51610 5196 ft 229 kts 308°
2026-04-21 17:22 47.25722 27.49688 5585 ft 231 kts 308°
2026-04-21 17:22 47.26671 27.47772 6023 ft 232 kts 308°
2026-04-21 17:23 47.27623 27.45824 6506 ft 234 kts 308°
2026-04-21 17:23 47.28566 27.43867 7015 ft 235 kts 307°
2026-04-21 17:23 47.29488 27.41925 7521 ft 236 kts 307°
2026-04-21 17:23 47.30415 27.39939 8030 ft 236 kts 306°
2026-04-21 17:24 47.31319 27.37965 8559 ft 235 kts 306°
2026-04-21 17:24 47.32224 27.35957 9082 ft 235 kts 306°
2026-04-21 17:24 47.33109 27.33955 9606 ft 236 kts 304°
2026-04-21 17:24 47.33968 27.31919 10112 ft 237 kts 302°
2026-04-21 17:25 47.34772 27.29825 10641 ft 237 kts 300°
2026-04-21 17:25 47.35519 27.27651 11163 ft 240 kts 296°
2026-04-21 17:25 47.36471 27.25677 11633 ft 240 kts 326°
2026-04-21 17:25 47.38054 27.25004 12365 ft 244 kts
2026-04-21 17:26 47.39642 27.25925 13171 ft 261 kts 36°
2026-04-21 17:26 47.40731 27.28118 13788 ft 274 kts 59°
2026-04-21 17:26 47.41549 27.30596 14434 ft 279 kts 60°
2026-04-21 17:26 47.42375 27.33194 14543 ft 282 kts 61°
2026-04-21 17:27 47.43189 27.35861 14316 ft 286 kts 62°
2026-04-21 17:27 47.43950 27.38482 14675 ft 278 kts 63°
2026-04-21 17:27 47.44678 27.41119 15453 ft 285 kts 64°
2026-04-21 17:27 47.45398 27.43829 16034 ft 288 kts 65°
2026-04-21 17:28 47.46115 27.46623 16595 ft 303 kts 65°
2026-04-21 17:28 47.46867 27.49628 17134 ft 323 kts 66°
2026-04-21 17:28 47.47644 27.52800 17630 ft 328 kts 67°
2026-04-21 17:28 47.48410 27.56018 18136 ft 332 kts 67°
2026-04-21 17:29 47.49168 27.59272 18652 ft 337 kts 68°
2026-04-21 17:29 47.49918 27.62565 19181 ft 341 kts 68°
2026-04-21 17:29 47.50655 27.65863 19701 ft 342 kts 69°
2026-04-21 17:29 47.51384 27.69204 20233 ft 343 kts 70°
2026-04-21 17:30 47.52105 27.72587 20774 ft 345 kts 70°
2026-04-21 17:30 47.52820 27.75997 21316 ft 347 kts 70°
2026-04-21 17:30 47.53523 27.79393 21853 ft 349 kts 70°
2026-04-21 17:30 47.54226 27.82812 22393 ft 351 kts 70°
2026-04-21 17:31 47.54934 27.86258 22936 ft 355 kts 71°
2026-04-21 17:31 47.55651 27.89737 23475 ft 356 kts 70°
2026-04-21 17:31 47.56378 27.93240 24020 ft 358 kts 70°
2026-04-21 17:31 47.57120 27.96770 24569 ft 359 kts 70°
2026-04-21 17:32 47.57623 27.99131 24925 ft 362 kts 70°
2026-04-21 17:32 47.58651 28.03863 25626 ft 366 kts 70°
2026-04-21 17:32 47.59453 28.07456 26155 ft 370 kts 69°
2026-04-21 17:32 47.60308 28.11175 26699 ft 394 kts 69°
2026-04-21 17:33 47.61242 28.15116 27191 ft 418 kts 68°
2026-04-21 17:33 47.62256 28.19265 27616 ft 442 kts 68°
2026-04-21 17:33 47.63368 28.23690 27995 ft 466 kts 67°
2026-04-21 17:33 47.64565 28.28332 28336 ft 489 kts 67°
2026-04-21 17:34 47.65817 28.33068 28674 ft 489 kts 66°
2026-04-21 17:34 47.67085 28.37756 29085 ft 489 kts 66°
2026-04-21 17:34 47.68388 28.42444 29525 ft 488 kts 65°
2026-04-21 17:34 47.69704 28.47047 29983 ft 488 kts 64°
2026-04-21 17:35 47.71061 28.51657 30460 ft 486 kts 64°
2026-04-21 17:35 47.72465 28.56277 30929 ft 486 kts 63°
2026-04-21 17:35 47.73833 28.60809 31336 ft 488 kts 66°
2026-04-21 17:35 47.75110 28.65565 31723 ft 490 kts 68°
2026-04-21 17:36 47.76318 28.70238 32112 ft 492 kts 68°
2026-04-21 17:36 47.77580 28.75022 32491 ft 493 kts 67°
2026-04-21 17:36 47.78898 28.79780 32857 ft 509 kts 65°
2026-04-21 17:36 47.80341 28.84680 33173 ft 520 kts 64°
2026-04-21 17:37 47.81881 28.89601 33513 ft 523 kts 62°
2026-04-21 17:37 47.83487 28.94445 33865 ft 527 kts 61°
2026-04-21 17:37 47.84614 28.97695 33978 ft 530 kts 60°
2026-04-21 17:37 47.86958 29.04116 33960 ft 530 kts 58°
2026-04-21 17:38 47.90713 29.13533 33979 ft 532 kts 56°
2026-04-21 17:38 47.94791 29.22697 33982 ft 532 kts 52°
2026-04-21 17:39 47.96783 29.27293 33976 ft 534 kts 63°
2026-04-21 17:39 47.97790 29.32614 34300 ft 531 kts 83°
2026-04-21 17:39 47.97664 29.38124 34293 ft 537 kts 100°
2026-04-21 17:39 47.96421 29.43355 34038 ft 536 kts 120°
2026-04-21 17:40 47.94131 29.47671 33998 ft 534 kts 139°
2026-04-21 17:40 47.91060 29.50683 34000 ft 528 kts 158°
2026-04-21 17:40 47.87569 29.52090 34000 ft 522 kts 176°
2026-04-21 17:40 47.83979 29.51792 34000 ft 514 kts 195°
2026-04-21 17:41 47.80697 29.49848 33998 ft 506 kts 214°
2026-04-21 17:41 47.78060 29.46516 34004 ft 499 kts 232°
2026-04-21 17:41 47.76292 29.42095 34006 ft 493 kts 251°
2026-04-21 17:41 47.75605 29.37178 34007 ft 490 kts 269°
2026-04-21 17:42 47.76038 29.32177 34007 ft 488 kts 288°
2026-04-21 17:42 47.77541 29.27682 34009 ft 489 kts 306°
2026-04-21 17:42 47.79958 29.24140 34009 ft 492 kts 324°
2026-04-21 17:42 47.83077 29.21914 34011 ft 498 kts 342°
2026-04-21 17:43 47.86516 29.21294 34010 ft 505 kts
2026-04-21 17:43 47.89949 29.22222 34021 ft 511 kts 11°
2026-04-21 17:43 47.93436 29.23515 33721 ft 510 kts 11°
2026-04-21 17:43 47.96859 29.24741 33755 ft 508 kts 11°
2026-04-21 17:44 48.00275 29.25921 33932 ft 511 kts 10°
2026-04-21 17:44 48.03749 29.27081 33968 ft 512 kts
2026-04-21 17:44 48.10746 29.29312 33996 ft 512 kts
2026-04-21 17:45 48.17723 29.31400 34002 ft 512 kts
2026-04-21 17:45 48.24715 29.33367 34003 ft 511 kts
2026-04-21 17:46 48.31714 29.35233 34010 ft 511 kts
2026-04-21 17:46 48.38722 29.37014 34002 ft 511 kts
2026-04-21 17:47 48.45743 29.38728 34005 ft 510 kts
2026-04-21 17:47 48.52721 29.40373 34006 ft 510 kts
2026-04-21 17:48 48.59742 29.41981 34002 ft 510 kts
2026-04-21 17:48 48.66736 29.43545 33998 ft 510 kts
2026-04-21 17:49 48.73766 29.45088 34000 ft 510 kts
2026-04-21 17:49 48.80797 29.46614 34007 ft 510 kts
2026-04-21 17:50 48.87783 29.48121 34002 ft 509 kts
2026-04-21 17:50 48.94588 29.49589 34000 ft 509 kts
2026-04-21 17:51 49.01645 29.51120 33999 ft 509 kts
2026-04-21 17:51 49.08625 29.52652 33995 ft 509 kts
2026-04-21 17:52 49.15659 29.54218 33996 ft 509 kts
2026-04-21 17:52 49.22685 29.55798 33992 ft 508 kts
2026-04-21 17:53 49.29664 29.57394 33989 ft 507 kts
2026-04-21 17:53 49.36610 29.59020 33990 ft 507 kts
2026-04-21 17:54 49.43565 29.60698 33991 ft 507 kts
2026-04-21 17:54 49.66962 29.66628 33993 ft 507 kts
2026-04-21 17:55 49.95903 29.74664 33993 ft 509 kts 11°
2026-04-21 17:55 50.02975 29.77063 33997 ft 509 kts 13°
2026-04-21 17:56 50.09939 29.79829 33998 ft 508 kts 15°
2026-04-21 17:56 50.16863 29.82981 33995 ft 508 kts 17°
2026-04-21 17:57 50.23676 29.86477 33994 ft 507 kts 19°
2026-04-21 17:57 50.30468 29.90391 33905 ft 511 kts 21°
2026-04-21 17:58 50.33836 29.92498 33524 ft 513 kts 22°
2026-04-21 17:58 50.37149 29.94690 33124 ft 513 kts 23°
2026-04-21 17:58 50.40482 29.97035 32740 ft 511 kts 25°
2026-04-21 17:58 50.43726 29.99480 32361 ft 509 kts 26°
2026-04-21 17:59 50.46906 30.02054 31987 ft 505 kts 28°
2026-04-21 17:59 50.50047 30.04777 31607 ft 502 kts 30°
2026-04-21 17:59 50.53075 30.07583 31221 ft 500 kts 31°
2026-04-21 17:59 50.56107 30.10582 30684 ft 496 kts 33°
2026-04-21 18:00 50.59002 30.13637 30155 ft 493 kts 34°
2026-04-21 18:00 50.61498 30.17368 29985 ft 490 kts 54°
2026-04-21 18:00 50.63027 30.22279 30147 ft 498 kts 71°
2026-04-21 18:00 50.63543 30.27791 29891 ft 497 kts 86°
2026-04-21 18:01 50.63625 30.33356 30112 ft 509 kts 87°
2026-04-21 18:01 50.63692 30.39035 28452 ft 511 kts 88°
2026-04-21 18:01 50.63687 30.44643 27516 ft 498 kts 89°
2026-04-21 18:01 50.63600 30.50136 26920 ft 488 kts 90°
2026-04-21 18:02 50.63438 30.55551 25911 ft 489 kts 91°
2026-04-21 18:02 50.63205 30.60977 24790 ft 490 kts 92°
2026-04-21 18:02 50.62913 30.66368 23650 ft 490 kts 94°
2026-04-21 18:02 50.62559 30.71785 22074 ft 499 kts 95°
2026-04-21 18:03 50.62161 30.77363 20094 ft 511 kts 95°
2026-04-21 18:03 50.61877 30.82987 18556 ft 504 kts 83°
2026-04-21 18:03 50.63298 30.87594 19645 ft 438 kts 38°
2026-04-21 18:03 50.65955 30.89613 19089 ft 430 kts
2026-04-21 18:04 50.68959 30.88631 16418 ft 461 kts 337°
2026-04-21 18:04 50.71902 30.86602 15172 ft 461 kts 336°
2026-04-21 18:04 50.74808 30.84506 14788 ft 442 kts 335°
2026-04-21 18:04 50.77625 30.82420 13928 ft 437 kts 335°
2026-04-21 18:05 50.80376 30.80339 13537 ft 422 kts 335°
2026-04-21 18:05 50.83015 30.78306 13002 ft 412 kts 335°
2026-04-21 18:05 50.85601 30.76315 12435 ft 403 kts 336°
2026-04-21 18:05 50.88268 30.74853 12238 ft 384 kts 348°
2026-04-21 18:06 50.90872 30.74902 12141 ft 365 kts 15°
2026-04-21 18:06 50.92957 30.77081 11670 ft 361 kts 52°
2026-04-21 18:06 50.93747 30.80869 11245 ft 358 kts 86°
2026-04-21 18:06 50.93471 30.84713 11372 ft 340 kts 100°
2026-04-21 18:07 50.92610 30.88353 10638 ft 349 kts 117°
2026-04-21 18:07 50.91127 30.91406 10357 ft 343 kts 134°
2026-04-21 18:07 50.89187 30.93668 10189 ft 335 kts 150°
2026-04-21 18:07 50.86969 30.94994 9767 ft 333 kts 169°
2026-04-21 18:08 50.84649 30.95053 9055 ft 341 kts 191°
2026-04-21 18:08 50.82282 30.93857 7339 ft 373 kts 203°
2026-04-21 18:08 50.79828 30.92520 7297 ft 350 kts 191°
2026-04-21 18:08 50.77463 30.92304 7744 ft 321 kts 180°
2026-04-21 18:09 50.75225 30.92289 7559 ft 313 kts 181°
2026-04-21 18:09 50.73024 30.92220 7192 ft 304 kts 182°
2026-04-21 18:09 50.71643 30.92187 6983 ft 283 kts 181°
2026-04-21 18:09 50.69167 30.92133 6737 ft 244 kts 182°
2026-04-21 18:10 50.67469 30.92049 6204 ft 235 kts 183°
2026-04-21 18:10 50.65873 30.91954 5978 ft 218 kts 183°
2026-04-21 18:10 50.64396 30.91847 5832 ft 200 kts 184°
2026-04-21 18:10 50.62998 30.91719 5540 ft 193 kts 184°
2026-04-21 18:11 50.61657 30.91617 5357 ft 189 kts 183°
2026-04-21 18:11 50.60218 30.91493 5001 ft 235 kts 184°
2026-04-21 18:11 50.58553 30.91353 5056 ft 227 kts 182°
2026-04-21 18:11 50.56981 30.91406 4963 ft 218 kts 175°
2026-04-21 18:12 50.55436 30.91609 4639 ft 222 kts 175°
2026-04-21 18:12 50.53855 30.91848 4196 ft 223 kts 173°
2026-04-21 18:12 50.52298 30.92087 3891 ft 216 kts 176°
2026-04-21 18:12 50.50788 30.92070 3547 ft 211 kts 182°
2026-04-21 18:13 50.49309 30.91898 3280 ft 205 kts 186°
2026-04-21 18:13 50.47886 30.91642 2953 ft 203 kts 185°
2026-04-21 18:13 50.46439 30.91478 2602 ft 202 kts 183°
2026-04-21 18:13 50.45054 30.91331 2441 ft 191 kts 183°
2026-04-21 18:14 50.42471 30.91126 1971 ft 170 kts 180°
2026-04-21 18:14 50.41305 30.91057 1696 ft 159 kts 182°
2026-04-21 18:14 50.40221 30.90946 1413 ft 149 kts 183°
2026-04-21 18:15 50.39180 30.90852 1079 ft 143 kts 179°
2026-04-21 18:15 50.38174 30.90802 807 ft 140 kts 182°
2026-04-21 18:15 50.37204 30.90715 577 ft 139 kts 181°
2026-04-21 18:15 50.36225 30.90657 462 ft 136 kts 182°
2026-04-21 18:16 50.35399 30.90601 402 ft 70 kts 182°
2026-04-21 18:16 50.35251 30.90591 402 ft 0 kts 182°
2026-04-21 18:16 50.35248 30.90591 402 ft 1 kts 182°
2026-04-21 18:17 50.35230 30.90588 402 ft 4 kts 183°
2026-04-21 18:17 50.35174 30.90570 403 ft 11 kts 213°
2026-04-21 18:17 50.35199 30.90465 404 ft 15 kts 331°
2026-04-21 18:17 50.35307 30.90354 404 ft 20 kts 287°
2026-04-21 18:18 50.35198 30.90212 406 ft 23 kts 244°
2026-04-21 18:18 50.35185 30.89985 408 ft 7 kts 270°
2026-04-21 18:18 50.35186 30.89954 408 ft 2 kts 275°
2026-04-21 18:18 50.35187 30.89932 409 ft 1 kts 273°
2026-04-21 18:19 50.35187 30.89916 409 ft 1 kts 273°
2026-04-21 18:19 50.35187 30.89906 409 ft 0 kts 272°
2026-04-21 18:19 50.35188 30.89903 409 ft 0 kts 272°
2026-04-21 18:20 50.35188 30.89893 410 ft 0 kts 272°